Wetterdaten: Donnerstag, 05.03.2009
Datum Zeit Temp. I. Temp. A. Boden 5 cm Feuchte A. Sonne Luftdruck Regen Wind
05.03.2009 00:01 21,3 C 7,6 C 6,6 C 73 % 0 % 982 hPa 0,0 l/m 31,7 km/h (5 Bft)
05.03.2009 00:04 21,3 C 7,6 C 6,3 C 73 % 0 % 982 hPa 0,0 l/m 20,5 km/h (4 Bft)
05.03.2009 00:07 21,3 C 7,6 C 6,2 C 73 % 0 % 982 hPa 0,0 l/m 20,0 km/h (4 Bft)
05.03.2009 00:10 21,3 C 7,6 C 6,5 C 73 % 0 % 982 hPa 0,0 l/m 20,5 km/h (4 Bft)
05.03.2009 00:13 21,3 C 7,6 C 6,6 C 73 % 0 % 982 hPa 0,0 l/m 21,3 km/h (4 Bft)
05.03.2009 00:16 21,3 C 7,6 C 6,3 C 74 % 0 % 982 hPa 0,0 l/m 20,8 km/h (4 Bft)
05.03.2009 00:19 21,3 C 7,5 C 6,3 C 74 % 0 % 982 hPa 0,0 l/m 26,0 km/h (4 Bft)
05.03.2009 00:22 21,3 C 7,5 C 6,4 C 74 % 0 % 982 hPa 0,0 l/m 26,4 km/h (4 Bft)
05.03.2009 00:25 21,3 C 7,5 C 6,5 C 74 % 0 % 982 hPa 0,0 l/m 27,9 km/h (4 Bft)
05.03.2009 00:28 21,3 C 7,6 C 6,6 C 74 % 0 % 982 hPa 0,0 l/m 25,1 km/h (4 Bft)
05.03.2009 00:31 21,3 C 7,6 C 6,6 C 74 % 0 % 982 hPa 0,0 l/m 28,2 km/h (4 Bft)
05.03.2009 00:34 21,3 C 7,6 C 6,5 C 74 % 0 % 982 hPa 0,0 l/m 28,2 km/h (4 Bft)
05.03.2009 00:37 21,3 C 7,6 C 6,6 C 74 % 0 % 982 hPa 0,0 l/m 30,3 km/h (5 Bft)
05.03.2009 00:40 21,3 C 7,6 C 6,5 C 74 % 0 % 982 hPa 0,0 l/m 30,3 km/h (5 Bft)
05.03.2009 00:43 21,3 C 7,5 C 6,5 C 75 % 0 % 982 hPa 0,0 l/m 23,0 km/h (4 Bft)
05.03.2009 00:46 21,3 C 7,5 C 6,4 C 75 % 0 % 982 hPa 0,0 l/m 28,9 km/h (5 Bft)
05.03.2009 00:49 21,3 C 7,5 C 6,4 C 75 % 0 % 982 hPa 0,0 l/m 32,7 km/h (5 Bft)
05.03.2009 00:52 21,3 C 7,5 C 6,4 C 75 % 0 % 982 hPa 0,0 l/m 33,4 km/h (5 Bft)
05.03.2009 00:55 21,3 C 7,6 C 6,6 C 75 % 0 % 982 hPa 0,0 l/m 32,7 km/h (5 Bft)
05.03.2009 00:58 21,3 C 7,5 C 6,4 C 75 % 0 % 982 hPa 0,0 l/m 25,4 km/h (4 Bft)
05.03.2009 01:01 21,3 C 7,5 C 6,4 C 75 % 0 % 982 hPa 0,0 l/m 25,4 km/h (4 Bft)
05.03.2009 01:04 21,3 C 7,5 C 6,6 C 75 % 0 % 981 hPa 0,0 l/m 27,5 km/h (4 Bft)
05.03.2009 01:07 21,3 C 7,6 C 6,7 C 75 % 0 % 981 hPa 0,0 l/m 30,3 km/h (5 Bft)
05.03.2009 01:10 21,3 C 7,6 C 6,5 C 75 % 0 % 981 hPa 0,0 l/m 32,1 km/h (5 Bft)
05.03.2009 01:13 21,3 C 7,6 C 6,6 C 75 % 0 % 981 hPa 0,0 l/m 27,8 km/h (4 Bft)
05.03.2009 01:16 21,3 C 7,6 C 6,7 C 75 % 0 % 981 hPa 0,0 l/m 30,6 km/h (5 Bft)
05.03.2009 01:19 21,3 C 7,6 C 6,9 C 75 % 0 % 981 hPa 0,0 l/m 43,0 km/h (6 Bft)
05.03.2009 01:22 21,3 C 7,6 C 6,7 C 75 % 0 % 981 hPa 0,0 l/m 31,4 km/h (5 Bft)
05.03.2009 01:25 21,3 C 7,6 C 6,6 C 75 % 0 % 981 hPa 0,0 l/m 29,3 km/h (5 Bft)
05.03.2009 01:28 21,3 C 7,6 C 6,7 C 75 % 0 % 981 hPa 0,0 l/m 30,2 km/h (5 Bft)
05.03.2009 01:31 21,3 C 7,6 C 6,9 C 75 % 0 % 981 hPa 0,0 l/m 29,3 km/h (5 Bft)
05.03.2009 01:34 21,2 C 7,6 C 6,7 C 75 % 0 % 981 hPa 0,0 l/m 35,2 km/h (5 Bft)
05.03.2009 01:37 21,2 C 7,6 C 6,8 C 75 % 0 % 981 hPa 0,0 l/m 34,9 km/h (5 Bft)
05.03.2009 01:40 21,2 C 7,7 C 6,8 C 75 % 0 % 980 hPa 0,0 l/m 30,9 km/h (5 Bft)
05.03.2009 01:43 21,3 C 7,6 C 6,6 C 75 % 0 % 980 hPa 0,0 l/m 29,1 km/h (5 Bft)
05.03.2009 01:46 21,2 C 7,6 C 7,0 C 76 % 0 % 980 hPa 0,0 l/m 29,2 km/h (5 Bft)
05.03.2009 01:49 21,2 C 7,6 C 6,8 C 76 % 0 % 980 hPa 0,0 l/m 25,6 km/h (4 Bft)
05.03.2009 01:52 21,2 C 7,6 C 6,8 C 76 % 0 % 980 hPa 0,0 l/m 25,6 km/h (4 Bft)
05.03.2009 01:55 21,2 C 7,6 C 6,6 C 76 % 0 % 980 hPa 0,0 l/m 25,0 km/h (4 Bft)
05.03.2009 01:58 21,2 C 7,6 C 6,6 C 76 % 0 % 980 hPa 0,0 l/m 29,8 km/h (5 Bft)
05.03.2009 02:01 21,2 C 7,6 C 6,6 C 76 % 0 % 980 hPa 0,0 l/m 29,8 km/h (5 Bft)
05.03.2009 02:04 21,2 C 7,6 C 6,5 C 76 % 0 % 980 hPa 0,0 l/m 28,6 km/h (4 Bft)
05.03.2009 02:07 21,2 C 7,6 C 6,5 C 76 % 0 % 980 hPa 0,0 l/m 27,2 km/h (4 Bft)
05.03.2009 02:10 21,2 C 7,6 C 6,7 C 76 % 0 % 980 hPa 0,0 l/m 30,8 km/h (5 Bft)
05.03.2009 02:13 21,2 C 7,6 C 6,6 C 76 % 0 % 980 hPa 0,0 l/m 27,3 km/h (4 Bft)
05.03.2009 02:16 21,2 C 7,6 C 6,7 C 77 % 0 % 980 hPa 0,0 l/m 27,3 km/h (4 Bft)
05.03.2009 02:19 21,2 C 7,6 C 6,7 C 77 % 0 % 980 hPa 0,0 l/m 38,3 km/h (5 Bft)
05.03.2009 02:22 21,2 C 7,6 C 6,5 C 77 % 0 % 980 hPa 0,0 l/m 27,4 km/h (4 Bft)
05.03.2009 02:25 21,2 C 7,6 C 6,8 C 77 % 0 % 980 hPa 0,0 l/m 32,8 km/h (5 Bft)
05.03.2009 02:28 21,2 C 7,6 C 6,7 C 77 % 0 % 980 hPa 0,0 l/m 33,6 km/h (5 Bft)
05.03.2009 02:31 21,2 C 7,6 C 6,7 C 77 % 0 % 980 hPa 0,0 l/m 31,8 km/h (5 Bft)
05.03.2009 02:34 21,3 C 7,6 C 6,7 C 77 % 0 % 980 hPa 0,0 l/m 30,6 km/h (5 Bft)
05.03.2009 02:37 21,2 C 7,6 C 6,5 C 77 % 0 % 980 hPa 0,0 l/m 29,5 km/h (5 Bft)
05.03.2009 02:40 21,3 C 7,6 C 6,5 C 78 % 0 % 980 hPa 0,0 l/m 24,3 km/h (4 Bft)
05.03.2009 02:43 21,3 C 7,6 C 6,5 C 78 % 0 % 980 hPa 0,0 l/m 30,3 km/h (5 Bft)
05.03.2009 02:46 21,2 C 7,5 C 6,5 C 78 % 0 % 980 hPa 0,0 l/m 27,3 km/h (4 Bft)
05.03.2009 02:49 21,3 C 7,5 C 6,3 C 78 % 0 % 980 hPa 0,0 l/m 29,2 km/h (5 Bft)
05.03.2009 02:52 21,2 C 7,5 C 6,6 C 79 % 0 % 980 hPa 0,0 l/m 35,5 km/h (5 Bft)
05.03.2009 02:55 21,2 C 7,5 C 6,6 C 79 % 0 % 980 hPa 0,0 l/m 27,1 km/h (4 Bft)
05.03.2009 02:58 21,2 C 7,4 C 6,3 C 79 % 0 % 980 hPa 0,0 l/m 22,5 km/h (4 Bft)
05.03.2009 03:01 21,2 C 7,4 C 6,4 C 79 % 0 % 980 hPa 0,0 l/m 24,7 km/h (4 Bft)
05.03.2009 03:04 21,2 C 7,4 C 6,4 C 79 % 0 % 980 hPa 0,0 l/m 31,3 km/h (5 Bft)
05.03.2009 03:07 21,2 C 7,4 C 6,5 C 79 % 0 % 979 hPa 0,0 l/m 33,2 km/h (5 Bft)
05.03.2009 03:10 21,2 C 7,4 C 6,5 C 79 % 0 % 979 hPa 0,0 l/m 24,1 km/h (4 Bft)
05.03.2009 03:13 21,2 C 7,3 C 6,2 C 80 % 0 % 979 hPa 0,0 l/m 24,1 km/h (4 Bft)
05.03.2009 03:16 21,2 C 7,3 C 6,7 C 80 % 0 % 979 hPa 0,0 l/m 37,2 km/h (5 Bft)
05.03.2009 03:19 21,2 C 7,3 C 6,5 C 80 % 0 % 979 hPa 0,0 l/m 37,2 km/h (5 Bft)
05.03.2009 03:22 21,2 C 7,4 C 6,6 C 80 % 0 % 979 hPa 0,0 l/m 35,7 km/h (5 Bft)
05.03.2009 03:25 21,2 C 7,4 C 6,6 C 80 % 0 % 979 hPa 0,0 l/m 29,4 km/h (5 Bft)
05.03.2009 03:28 21,2 C 7,4 C 6,6 C 80 % 0 % 979 hPa 0,0 l/m 37,5 km/h (5 Bft)
05.03.2009 03:31 21,2 C 7,4 C 6,6 C 80 % 0 % 979 hPa 0,0 l/m 39,8 km/h (6 Bft)
05.03.2009 03:34 21,2 C 7,4 C 6,7 C 80 % 0 % 979 hPa 0,0 l/m 30,3 km/h (5 Bft)
05.03.2009 03:37 21,2 C 7,4 C 6,5 C 80 % 0 % 979 hPa 0,0 l/m 42,9 km/h (6 Bft)
05.03.2009 03:40 21,2 C 7,4 C 6,6 C 80 % 0 % 979 hPa 0,0 l/m 27,8 km/h (4 Bft)
05.03.2009 03:43 21,2 C 7,4 C 6,5 C 80 % 0 % 979 hPa 0,0 l/m 27,8 km/h (4 Bft)
05.03.2009 03:46 21,2 C 7,4 C 6,5 C 80 % 0 % 979 hPa 0,0 l/m 30,6 km/h (5 Bft)
05.03.2009 03:49 21,2 C 7,4 C 6,6 C 80 % 0 % 979 hPa 0,0 l/m 31,5 km/h (5 Bft)
05.03.2009 03:52 21,2 C 7,4 C 6,7 C 80 % 0 % 979 hPa 0,0 l/m 35,8 km/h (5 Bft)
05.03.2009 03:55 21,2 C 7,4 C 6,7 C 81 % 0 % 979 hPa 0,0 l/m 37,0 km/h (5 Bft)
05.03.2009 03:58 21,2 C 7,5 C 6,9 C 80 % 0 % 979 hPa 0,0 l/m 34,1 km/h (5 Bft)
05.03.2009 04:01 21,2 C 7,5 C 6,9 C 80 % 0 % 979 hPa 0,0 l/m 34,1 km/h (5 Bft)
05.03.2009 04:04 21,2 C 7,5 C 6,6 C 80 % 0 % 979 hPa 0,0 l/m 34,1 km/h (5 Bft)
05.03.2009 04:07 21,2 C 7,6 C 6,7 C 80 % 0 % 979 hPa 0,0 l/m 28,0 km/h (4 Bft)
05.03.2009 04:10 21,2 C 7,5 C 6,7 C 81 % 0 % 979 hPa 0,0 l/m 32,1 km/h (5 Bft)
05.03.2009 04:13 21,2 C 7,6 C 6,7 C 81 % 0 % 979 hPa 0,0 l/m 34,0 km/h (5 Bft)
05.03.2009 04:16 21,2 C 7,6 C 6,5 C 81 % 0 % 979 hPa 0,0 l/m 27,1 km/h (4 Bft)
05.03.2009 04:19 21,2 C 7,5 C 6,5 C 81 % 0 % 979 hPa 0,0 l/m 26,8 km/h (4 Bft)
05.03.2009 04:22 21,2 C 7,5 C 6,4 C 81 % 0 % 979 hPa 0,0 l/m 30,0 km/h (5 Bft)
05.03.2009 04:25 21,2 C 7,4 C 6,3 C 81 % 0 % 979 hPa 0,0 l/m 20,8 km/h (4 Bft)
05.03.2009 04:28 21,2 C 7,4 C 6,5 C 81 % 0 % 979 hPa 0,0 l/m 30,1 km/h (5 Bft)
05.03.2009 04:31 21,2 C 7,4 C 6,4 C 82 % 0 % 979 hPa 0,0 l/m 35,8 km/h (5 Bft)
05.03.2009 04:34 21,2 C 7,4 C 6,4 C 82 % 0 % 979 hPa 0,0 l/m 35,8 km/h (5 Bft)
05.03.2009 04:37 21,2 C 7,3 C 6,3 C 82 % 0 % 979 hPa 0,0 l/m 23,8 km/h (4 Bft)
05.03.2009 04:40 21,2 C 7,3 C 6,3 C 82 % 0 % 979 hPa 0,0 l/m 26,5 km/h (4 Bft)
05.03.2009 04:43 21,2 C 7,3 C 6,1 C 83 % 0 % 979 hPa 0,0 l/m 24,9 km/h (4 Bft)
05.03.2009 04:46 21,2 C 7,2 C 6,3 C 83 % 0 % 979 hPa 0,0 l/m 24,4 km/h (4 Bft)
05.03.2009 04:49 21,2 C 7,3 C 6,4 C 83 % 0 % 979 hPa 0,0 l/m 21,0 km/h (4 Bft)
05.03.2009 04:52 21,2 C 7,3 C 6,4 C 83 % 0 % 979 hPa 0,0 l/m 28,1 km/h (4 Bft)
05.03.2009 04:55 21,2 C 7,2 C 6,4 C 83 % 0 % 979 hPa 0,0 l/m 22,2 km/h (4 Bft)
05.03.2009 04:58 21,2 C 7,4 C 6,3 C 82 % 0 % 979 hPa 0,0 l/m 22,8 km/h (4 Bft)
05.03.2009 05:01 21,2 C 7,4 C 6,3 C 82 % 0 % 979 hPa 0,0 l/m 22,8 km/h (4 Bft)
05.03.2009 05:04 21,2 C 7,4 C 6,4 C 82 % 0 % 979 hPa 0,0 l/m 19,6 km/h (3 Bft)
05.03.2009 05:07 21,2 C 7,5 C 6,6 C 82 % 0 % 979 hPa 0,0 l/m 22,3 km/h (4 Bft)
05.03.2009 05:10 21,2 C 7,5 C 6,6 C 81 % 0 % 979 hPa 0,0 l/m 21,3 km/h (4 Bft)
05.03.2009 05:13 21,2 C 7,6 C 6,6 C 81 % 0 % 978 hPa 0,0 l/m 26,9 km/h (4 Bft)
05.03.2009 05:16 21,2 C 7,6 C 7,0 C 81 % 0 % 978 hPa 0,0 l/m 24,6 km/h (4 Bft)
05.03.2009 05:19 21,2 C 7,6 C 6,8 C 81 % 0 % 978 hPa 0,0 l/m 30,5 km/h (5 Bft)
05.03.2009 05:22 21,2 C 7,6 C 6,9 C 81 % 0 % 978 hPa 0,0 l/m 26,8 km/h (4 Bft)
05.03.2009 05:25 21,2 C 7,7 C 6,9 C 81 % 0 % 978 hPa 0,0 l/m 33,1 km/h (5 Bft)
05.03.2009 05:28 21,2 C 7,7 C 6,7 C 81 % 0 % 978 hPa 0,0 l/m 22,9 km/h (4 Bft)
05.03.2009 05:31 21,2 C 7,7 C 7,0 C 81 % 0 % 978 hPa 0,0 l/m 25,8 km/h (4 Bft)
05.03.2009 05:34 21,2 C 7,7 C 7,0 C 81 % 0 % 978 hPa 0,0 l/m 22,0 km/h (4 Bft)
05.03.2009 05:37 21,2 C 7,7 C 7,0 C 81 % 0 % 978 hPa 0,0 l/m 33,4 km/h (5 Bft)
05.03.2009 05:40 21,2 C 7,7 C 7,0 C 81 % 0 % 978 hPa 0,0 l/m 26,1 km/h (4 Bft)
05.03.2009 05:43 21,2 C 7,7 C 7,1 C 81 % 0 % 978 hPa 0,0 l/m 32,9 km/h (5 Bft)
05.03.2009 05:46 21,2 C 7,8 C 6,9 C 81 % 0 % 978 hPa 0,0 l/m 31,1 km/h (5 Bft)
05.03.2009 05:49 21,2 C 7,8 C 6,8 C 81 % 0 % 978 hPa 0,0 l/m 25,6 km/h (4 Bft)
05.03.2009 05:52 21,2 C 7,9 C 7,1 C 80 % 0 % 978 hPa 0,0 l/m 29,1 km/h (5 Bft)
05.03.2009 05:55 21,2 C 7,9 C 7,1 C 80 % 0 % 978 hPa 0,0 l/m 36,0 km/h (5 Bft)
05.03.2009 05:58 21,2 C 7,9 C 7,2 C 80 % 0 % 978 hPa 0,0 l/m 42,5 km/h (6 Bft)
05.03.2009 06:01 21,2 C 7,9 C 7,2 C 80 % 0 % 978 hPa 0,0 l/m 42,5 km/h (6 Bft)
05.03.2009 06:04 21,2 C 7,9 C 7,2 C 80 % 0 % 978 hPa 0,0 l/m 35,4 km/h (5 Bft)
05.03.2009 06:07 21,2 C 8,0 C 7,2 C 79 % 0 % 978 hPa 0,0 l/m 33,6 km/h (5 Bft)
05.03.2009 06:10 21,2 C 8,0 C 7,5 C 79 % 0 % 978 hPa 0,0 l/m 33,6 km/h (5 Bft)
05.03.2009 06:13 21,2 C 8,1 C 7,5 C 79 % 0 % 977 hPa 0,0 l/m 40,6 km/h (6 Bft)
05.03.2009 06:16 21,2 C 8,2 C 7,5 C 78 % 0 % 977 hPa 0,0 l/m 34,7 km/h (5 Bft)
05.03.2009 06:19 21,2 C 8,2 C 7,6 C 78 % 0 % 977 hPa 0,0 l/m 33,3 km/h (5 Bft)
05.03.2009 06:22 21,2 C 8,3 C 7,8 C 78 % 0 % 977 hPa 0,0 l/m 36,4 km/h (5 Bft)
05.03.2009 06:25 21,2 C 8,4 C 7,8 C 77 % 0 % 977 hPa 0,0 l/m 30,0 km/h (5 Bft)
05.03.2009 06:28 21,2 C 8,4 C 7,7 C 77 % 0 % 977 hPa 0,0 l/m 39,2 km/h (6 Bft)
05.03.2009 06:31 21,3 C 8,4 C 7,9 C 77 % 0 % 977 hPa 0,0 l/m 34,0 km/h (5 Bft)
05.03.2009 06:34 21,4 C 8,5 C 7,7 C 77 % 0 % 977 hPa 0,0 l/m 35,9 km/h (5 Bft)
05.03.2009 06:37 21,4 C 8,6 C 7,9 C 77 % 0 % 977 hPa 0,0 l/m 36,6 km/h (5 Bft)
05.03.2009 06:40 21,4 C 8,6 C 7,8 C 77 % 0 % 977 hPa 0,0 l/m 36,4 km/h (5 Bft)
05.03.2009 06:43 21,4 C 8,6 C 7,6 C 77 % 0 % 977 hPa 0,0 l/m 36,4 km/h (5 Bft)
05.03.2009 06:46 21,5 C 8,6 C 7,6 C 76 % 0 % 977 hPa 0,0 l/m 37,3 km/h (5 Bft)
05.03.2009 06:49 21,5 C 8,6 C 7,6 C 76 % 0 % 977 hPa 0,0 l/m 30,6 km/h (5 Bft)
05.03.2009 06:52 21,6 C 8,5 C 7,6 C 77 % 0 % 977 hPa 0,0 l/m 34,6 km/h (5 Bft)
05.03.2009 06:55 21,6 C 8,5 C 7,6 C 77 % 0 % 977 hPa 0,0 l/m 37,3 km/h (5 Bft)
05.03.2009 06:58 21,6 C 8,5 C 7,7 C 77 % 0 % 977 hPa 0,0 l/m 36,5 km/h (5 Bft)
05.03.2009 07:01 21,6 C 8,6 C 7,7 C 76 % 0 % 977 hPa 0,0 l/m 40,6 km/h (6 Bft)
05.03.2009 07:04 21,6 C 8,6 C 7,7 C 76 % 0 % 977 hPa 0,0 l/m 38,0 km/h (5 Bft)
05.03.2009 07:07 21,6 C 8,6 C 7,8 C 76 % 0 % 977 hPa 0,0 l/m 40,6 km/h (6 Bft)
05.03.2009 07:10 21,6 C 8,6 C 7,9 C 76 % 0 % 977 hPa 0,0 l/m 48,5 km/h (6 Bft)
05.03.2009 07:13 21,5 C 8,8 C 8,0 C 76 % 0 % 977 hPa 0,0 l/m 39,4 km/h (6 Bft)
05.03.2009 07:16 21,5 C 8,8 C 8,0 C 75 % 0 % 977 hPa 0,0 l/m 44,9 km/h (6 Bft)
05.03.2009 07:19 21,5 C 8,8 C 8,0 C 76 % 0 % 977 hPa 0,0 l/m 39,7 km/h (6 Bft)
05.03.2009 07:22 21,5 C 8,8 C 8,0 C 76 % 0 % 977 hPa 0,0 l/m 41,6 km/h (6 Bft)
05.03.2009 07:25 21,4 C 8,8 C 8,0 C 75 % 0 % 977 hPa 0,0 l/m 37,7 km/h (5 Bft)
05.03.2009 07:28 21,4 C 8,8 C 7,8 C 75 % 0 % 977 hPa 0,0 l/m 37,8 km/h (5 Bft)
05.03.2009 07:31 21,4 C 8,8 C 7,9 C 75 % 0 % 977 hPa 0,0 l/m 37,8 km/h (5 Bft)
05.03.2009 07:34 21,4 C 8,8 C 7,9 C 75 % 0 % 977 hPa 0,0 l/m 34,2 km/h (5 Bft)
05.03.2009 07:37 21,4 C 8,8 C 7,9 C 76 % 0 % 977 hPa 0,0 l/m 39,8 km/h (6 Bft)
05.03.2009 07:40 21,4 C 8,8 C 8,0 C 76 % 0 % 977 hPa 0,0 l/m 36,0 km/h (5 Bft)
05.03.2009 07:43 21,3 C 8,8 C 8,0 C 76 % 0 % 977 hPa 0,0 l/m 49,5 km/h (6 Bft)
05.03.2009 07:46 21,3 C 8,8 C 8,1 C 75 % 0 % 977 hPa 0,0 l/m 41,7 km/h (6 Bft)
05.03.2009 07:49 21,3 C 8,9 C 8,0 C 76 % 0 % 977 hPa 0,0 l/m 34,8 km/h (5 Bft)
05.03.2009 07:52 21,3 C 8,9 C 8,0 C 76 % 0 % 977 hPa 0,0 l/m 31,9 km/h (5 Bft)
05.03.2009 07:55 21,4 C 8,8 C 8,1 C 75 % 0 % 977 hPa 0,0 l/m 38,9 km/h (6 Bft)
05.03.2009 07:58 21,3 C 8,9 C 8,2 C 76 % 0 % 977 hPa 0,0 l/m 32,7 km/h (5 Bft)
05.03.2009 08:01 21,2 C 9,0 C 8,3 C 76 % 0 % 977 hPa 0,0 l/m 34,4 km/h (5 Bft)
05.03.2009 08:04 21,2 C 9,0 C 8,4 C 75 % 0 % 977 hPa 0,0 l/m 38,3 km/h (5 Bft)
05.03.2009 08:07 21,3 C 9,2 C 8,5 C 74 % 0 % 977 hPa 0,0 l/m 40,8 km/h (6 Bft)
05.03.2009 08:10 21,3 C 9,2 C 8,5 C 74 % 0 % 977 hPa 0,0 l/m 34,6 km/h (5 Bft)
05.03.2009 08:13 21,2 C 9,3 C 8,5 C 74 % 0 % 977 hPa 0,0 l/m 36,5 km/h (5 Bft)
05.03.2009 08:16 21,3 C 9,2 C 8,5 C 74 % 0 % 977 hPa 0,0 l/m 35,4 km/h (5 Bft)
05.03.2009 08:19 21,2 C 9,2 C 8,3 C 74 % 0 % 977 hPa 0,0 l/m 29,1 km/h (5 Bft)
05.03.2009 08:22 21,3 C 9,3 C 8,5 C 74 % 0 % 977 hPa 0,0 l/m 29,1 km/h (5 Bft)
05.03.2009 08:25 21,3 C 9,4 C 8,4 C 74 % 0 % 977 hPa 0,0 l/m 31,3 km/h (5 Bft)
05.03.2009 08:28 21,3 C 9,3 C 8,5 C 75 % 0 % 977 hPa 0,0 l/m 25,0 km/h (4 Bft)
05.03.2009 08:31 21,3 C 9,3 C 8,6 C 75 % 0 % 977 hPa 0,0 l/m 32,3 km/h (5 Bft)
05.03.2009 08:34 21,3 C 9,3 C 8,6 C 75 % 0 % 977 hPa 0,0 l/m 32,4 km/h (5 Bft)
05.03.2009 08:37 21,2 C 9,3 C 8,6 C 75 % 0 % 977 hPa 0,0 l/m 31,1 km/h (5 Bft)
05.03.2009 08:40 21,2 C 9,4 C 8,6 C 74 % 0 % 977 hPa 0,0 l/m 30,9 km/h (5 Bft)
05.03.2009 08:43 21,3 C 9,5 C 8,7 C 74 % 0 % 977 hPa 0,0 l/m 31,2 km/h (5 Bft)
05.03.2009 08:46 21,2 C 9,5 C 8,7 C 74 % 0 % 977 hPa 0,0 l/m 30,6 km/h (5 Bft)
05.03.2009 08:49 21,2 C 9,6 C 8,7 C 74 % 0 % 977 hPa 0,0 l/m 30,8 km/h (5 Bft)
05.03.2009 08:52 21,2 C 9,5 C 8,8 C 74 % 0 % 977 hPa 0,0 l/m 32,2 km/h (5 Bft)
05.03.2009 08:55 21,2 C 9,6 C 8,8 C 74 % 0 % 977 hPa 0,0 l/m 32,7 km/h (5 Bft)
05.03.2009 08:58 21,3 C 9,6 C 8,8 C 74 % 0 % 977 hPa 0,0 l/m 28,4 km/h (4 Bft)
05.03.2009 09:01 21,2 C 9,6 C 8,7 C 74 % 0 % 977 hPa 0,0 l/m 32,4 km/h (5 Bft)
05.03.2009 09:04 21,2 C 9,6 C 8,9 C 74 % 0 % 977 hPa 0,0 l/m 26,8 km/h (4 Bft)
05.03.2009 09:07 21,2 C 9,6 C 8,9 C 74 % 0 % 977 hPa 0,0 l/m 34,0 km/h (5 Bft)
05.03.2009 09:10 21,2 C 9,6 C 8,8 C 74 % 0 % 976 hPa 0,0 l/m 32,7 km/h (5 Bft)
05.03.2009 09:13 21,2 C 9,7 C 8,9 C 73 % 0 % 976 hPa 0,0 l/m 35,9 km/h (5 Bft)
05.03.2009 09:16 21,2 C 9,7 C 8,8 C 74 % 0 % 976 hPa 0,0 l/m 35,9 km/h (5 Bft)
05.03.2009 09:19 21,2 C 9,7 C 8,9 C 73 % 0 % 976 hPa 0,0 l/m 26,5 km/h (4 Bft)
05.03.2009 09:22 21,2 C 9,7 C 8,8 C 74 % 0 % 976 hPa 0,0 l/m 26,5 km/h (4 Bft)
05.03.2009 09:25 21,2 C 9,8 C 8,8 C 73 % 0 % 976 hPa 0,0 l/m 24,3 km/h (4 Bft)
05.03.2009 09:28 21,2 C 9,8 C 8,8 C 73 % 0 % 976 hPa 0,0 l/m 30,4 km/h (5 Bft)
05.03.2009 09:31 21,2 C 9,8 C 8,9 C 74 % 0 % 976 hPa 0,0 l/m 34,6 km/h (5 Bft)
05.03.2009 09:34 21,2 C 9,7 C 8,9 C 74 % 0 % 976 hPa 0,0 l/m 25,8 km/h (4 Bft)
05.03.2009 09:37 21,2 C 9,7 C 8,9 C 74 % 0 % 976 hPa 0,0 l/m 22,7 km/h (4 Bft)
05.03.2009 09:40 21,2 C 9,7 C 8,9 C 74 % 0 % 976 hPa 0,0 l/m 24,2 km/h (4 Bft)
05.03.2009 09:43 21,2 C 9,7 C 8,9 C 74 % 0 % 976 hPa 0,0 l/m 28,8 km/h (4 Bft)
05.03.2009 09:46 21,2 C 9,6 C 9,0 C 74 % 0 % 976 hPa 0,0 l/m 26,9 km/h (4 Bft)
05.03.2009 09:49 21,2 C 9,7 C 9,0 C 73 % 0 % 976 hPa 0,0 l/m 32,8 km/h (5 Bft)
05.03.2009 09:52 21,2 C 9,7 C 8,9 C 73 % 0 % 976 hPa 0,0 l/m 32,2 km/h (5 Bft)
05.03.2009 09:55 21,2 C 9,7 C 9,0 C 73 % 0 % 976 hPa 0,0 l/m 34,1 km/h (5 Bft)
05.03.2009 09:58 21,2 C 9,7 C 9,0 C 73 % 0 % 976 hPa 0,0 l/m 34,0 km/h (5 Bft)
05.03.2009 10:01 21,2 C 9,8 C 9,0 C 74 % 0 % 976 hPa 0,0 l/m 32,0 km/h (5 Bft)
05.03.2009 10:04 21,2 C 9,8 C 9,1 C 73 % 0 % 976 hPa 0,0 l/m 32,6 km/h (5 Bft)
05.03.2009 10:07 21,2 C 9,8 C 9,0 C 73 % 0 % 976 hPa 0,0 l/m 31,2 km/h (5 Bft)
05.03.2009 10:10 21,2 C 9,8 C 9,0 C 73 % 0 % 976 hPa 0,0 l/m 28,2 km/h (4 Bft)
05.03.2009 10:13 21,2 C 9,9 C 9,0 C 73 % 0 % 976 hPa 0,0 l/m 28,4 km/h (4 Bft)
05.03.2009 10:16 21,2 C 9,9 C 9,1 C 73 % 0 % 976 hPa 0,0 l/m 40,6 km/h (6 Bft)
05.03.2009 10:19 21,2 C 9,9 C 9,1 C 72 % 0 % 976 hPa 0,0 l/m 40,6 km/h (6 Bft)
05.03.2009 10:22 21,2 C 10,0 C 9,0 C 72 % 0 % 976 hPa 0,0 l/m 30,6 km/h (5 Bft)
05.03.2009 10:25 21,2 C 9,9 C 9,0 C 72 % 0 % 976 hPa 0,0 l/m 34,1 km/h (5 Bft)
05.03.2009 10:28 21,2 C 10,0 C 9,1 C 72 % 0 % 976 hPa 0,0 l/m 37,3 km/h (5 Bft)
05.03.2009 10:31 21,2 C 10,0 C 9,1 C 72 % 0 % 976 hPa 0,0 l/m 30,4 km/h (5 Bft)
05.03.2009 10:34 21,2 C 10,0 C 9,2 C 72 % 0 % 976 hPa 0,0 l/m 37,3 km/h (5 Bft)
05.03.2009 10:37 21,2 C 10,0 C 9,2 C 72 % 0 % 977 hPa 0,0 l/m 34,8 km/h (5 Bft)
05.03.2009 10:40 21,2 C 10,0 C 9,1 C 72 % 0 % 977 hPa 0,0 l/m 34,8 km/h (5 Bft)
05.03.2009 10:43 21,2 C 10,0 C 9,2 C 72 % 0 % 977 hPa 0,0 l/m 32,4 km/h (5 Bft)
05.03.2009 10:46 21,2 C 10,1 C 9,2 C 73 % 0 % 977 hPa 0,0 l/m 35,3 km/h (5 Bft)
05.03.2009 10:49 21,2 C 10,1 C 9,3 C 73 % 0 % 977 hPa 0,0 l/m 23,3 km/h (4 Bft)
05.03.2009 10:52 21,2 C 10,0 C 9,4 C 72 % 0 % 977 hPa 0,0 l/m 19,1 km/h (3 Bft)
05.03.2009 10:55 21,2 C 10,0 C 9,5 C 72 % 0 % 977 hPa 0,0 l/m 16,3 km/h (3 Bft)
05.03.2009 10:58 21,2 C 10,2 C 9,5 C 73 % 0 % 977 hPa 0,0 l/m 13,8 km/h (3 Bft)
05.03.2009 11:01 21,2 C 10,2 C 9,5 C 73 % 0 % 977 hPa 0,0 l/m 19,0 km/h (3 Bft)
05.03.2009 11:04 21,2 C 10,1 C 9,2 C 73 % 0 % 977 hPa 0,0 l/m 16,5 km/h (3 Bft)
05.03.2009 11:07 21,1 C 10,1 C 9,2 C 73 % 0 % 978 hPa 0,0 l/m 18,0 km/h (3 Bft)
05.03.2009 11:10 21,2 C 10,1 C 9,2 C 73 % 0 % 978 hPa 0,0 l/m 18,0 km/h (3 Bft)
05.03.2009 11:13 21,2 C 10,1 C 9,3 C 73 % 0 % 978 hPa 0,0 l/m 18,8 km/h (3 Bft)
05.03.2009 11:16 21,1 C 10,1 C 9,4 C 73 % 0 % 978 hPa 0,0 l/m 14,6 km/h (3 Bft)
05.03.2009 11:19 21,2 C 10,1 C 9,4 C 74 % 0 % 978 hPa 0,0 l/m 16,3 km/h (3 Bft)
05.03.2009 11:22 21,2 C 10,1 C 9,0 C 74 % 0 % 978 hPa 0,0 l/m 21,3 km/h (4 Bft)
05.03.2009 11:25 21,2 C 10,0 C 8,9 C 73 % 0 % 978 hPa 0,0 l/m 20,8 km/h (4 Bft)
05.03.2009 11:28 21,2 C 10,0 C 8,8 C 73 % 0 % 978 hPa 0,0 l/m 25,5 km/h (4 Bft)
05.03.2009 11:31 21,1 C 9,9 C 8,8 C 74 % 0 % 978 hPa 0,0 l/m 23,1 km/h (4 Bft)
05.03.2009 11:34 21,2 C 9,8 C 8,8 C 74 % 0 % 978 hPa 0,0 l/m 22,5 km/h (4 Bft)
05.03.2009 11:37 21,2 C 9,8 C 8,7 C 74 % 0 % 978 hPa 0,0 l/m 25,9 km/h (4 Bft)
05.03.2009 11:40 21,2 C 9,6 C 8,7 C 74 % 0 % 978 hPa 0,0 l/m 36,4 km/h (5 Bft)
05.03.2009 11:43 21,2 C 9,6 C 8,7 C 74 % 0 % 978 hPa 0,0 l/m 28,7 km/h (4 Bft)
05.03.2009 11:46 21,2 C 9,6 C 8,9 C 74 % 0 % 977 hPa 0,0 l/m 28,7 km/h (4 Bft)
05.03.2009 11:49 21,1 C 9,6 C 8,9 C 74 % 0 % 977 hPa 0,0 l/m 28,3 km/h (4 Bft)
05.03.2009 11:52 21,1 C 9,6 C 9,0 C 74 % 0 % 977 hPa 0,0 l/m 20,7 km/h (4 Bft)
05.03.2009 11:55 21,1 C 9,6 C 9,1 C 74 % 0 % 977 hPa 0,0 l/m 21,9 km/h (4 Bft)
05.03.2009 11:58 21,1 C 9,7 C 9,2 C 74 % 0 % 977 hPa 0,0 l/m 19,6 km/h (3 Bft)
05.03.2009 12:01 21,1 C 9,7 C 9,2 C 74 % 0 % 977 hPa 0,0 l/m 0,9 km/h (0 Bft)
05.03.2009 12:04 21,2 C 9,7 C 9,1 C 74 % 0 % 977 hPa 0,0 l/m 23,2 km/h (4 Bft)
05.03.2009 12:07 21,1 C 9,6 C 9,2 C 74 % 0 % 977 hPa 0,0 l/m 13,0 km/h (3 Bft)
05.03.2009 12:10 21,1 C 9,6 C 9,1 C 74 % 0 % 977 hPa 0,0 l/m 9,7 km/h (2 Bft)
05.03.2009 12:13 21,2 C 9,6 C 9,1 C 74 % 0 % 977 hPa 0,0 l/m 2,2 km/h (1 Bft)
05.03.2009 12:16 21,2 C 9,5 C 9,1 C 74 % 0 % 977 hPa 0,0 l/m 8,2 km/h (2 Bft)
05.03.2009 12:19 21,2 C 9,6 C 9,0 C 74 % 0 % 977 hPa 0,0 l/m 10,0 km/h (2 Bft)
05.03.2009 12:22 21,2 C 9,6 C 9,1 C 74 % 0 % 977 hPa 0,0 l/m 12,7 km/h (3 Bft)
05.03.2009 12:25 21,2 C 9,5 C 9,0 C 74 % 0 % 977 hPa 0,0 l/m 7,9 km/h (2 Bft)
05.03.2009 12:28 21,2 C 9,5 C 8,8 C 74 % 0 % 977 hPa 0,0 l/m 15,1 km/h (3 Bft)
05.03.2009 12:31 21,2 C 9,5 C 8,9 C 74 % 0 % 977 hPa 0,0 l/m 9,8 km/h (2 Bft)
05.03.2009 12:34 21,2 C 9,5 C 8,8 C 75 % 0 % 977 hPa 0,0 l/m 13,6 km/h (3 Bft)
05.03.2009 12:37 21,2 C 9,5 C 8,9 C 75 % 0 % 977 hPa 0,0 l/m 12,8 km/h (3 Bft)
05.03.2009 12:40 21,2 C 9,5 C 9,1 C 75 % 0 % 977 hPa 0,0 l/m 2,2 km/h (1 Bft)
05.03.2009 12:43 21,2 C 9,5 C 9,5 C 76 % 0 % 977 hPa 0,0 l/m 4,3 km/h (1 Bft)
05.03.2009 12:46 21,2 C 9,5 C 9,7 C 75 % 0 % 977 hPa 0,0 l/m 0,1 km/h (0 Bft)
05.03.2009 12:49 21,2 C 9,5 C 9,8 C 75 % 0 % 977 hPa 0,0 l/m 1,2 km/h (1 Bft)
05.03.2009 12:52 21,2 C 9,5 C 9,9 C 75 % 0 % 977 hPa 0,0 l/m 1,7 km/h (1 Bft)
05.03.2009 12:55 21,2 C 9,5 C 10,0 C 76 % 0 % 977 hPa 0,0 l/m 1,7 km/h (1 Bft)
05.03.2009 12:58 21,2 C 9,5 C 9,6 C 76 % 0 % 977 hPa 0,0 l/m 0,9 km/h (0 Bft)
05.03.2009 13:01 21,2 C 9,5 C 9,3 C 76 % 0 % 977 hPa 0,0 l/m 0,8 km/h (0 Bft)
05.03.2009 13:04 21,2 C 9,5 C 9,2 C 76 % 0 % 977 hPa 0,0 l/m 1,0 km/h (0 Bft)
05.03.2009 13:07 21,2 C 9,5 C 9,5 C 76 % 0 % 977 hPa 0,0 l/m 0,5 km/h (0 Bft)
05.03.2009 13:10 21,2 C 9,4 C 9,6 C 76 % 0 % 977 hPa 0,0 l/m 3,8 km/h (1 Bft)
05.03.2009 13:13 21,2 C 9,4 C 9,4 C 76 % 0 % 977 hPa 0,0 l/m 10,1 km/h (2 Bft)
05.03.2009 13:16 21,2 C 9,2 C 9,2 C 76 % 0 % 977 hPa 0,0 l/m 13,1 km/h (3 Bft)
05.03.2009 13:19 21,2 C 9,0 C 9,1 C 77 % 0 % 977 hPa 0,0 l/m 12,5 km/h (3 Bft)
05.03.2009 13:22 21,2 C 8,9 C 8,6 C 78 % 0 % 977 hPa 0,0 l/m 9,6 km/h (2 Bft)
05.03.2009 13:25 21,2 C 8,9 C 8,4 C 78 % 0 % 977 hPa 0,0 l/m 9,2 km/h (2 Bft)
05.03.2009 13:28 21,2 C 8,6 C 8,1 C 79 % 0 % 977 hPa 0,0 l/m 13,0 km/h (3 Bft)
05.03.2009 13:31 21,2 C 8,6 C 8,1 C 79 % 0 % 977 hPa 0,0 l/m 11,0 km/h (2 Bft)
05.03.2009 13:34 21,2 C 8,5 C 7,7 C 80 % 0 % 977 hPa 0,0 l/m 1,8 km/h (1 Bft)
05.03.2009 13:37 21,2 C 8,4 C 7,8 C 80 % 0 % 977 hPa 0,0 l/m 1,4 km/h (1 Bft)
05.03.2009 13:40 21,2 C 8,4 C 7,7 C 80 % 0 % 977 hPa 0,0 l/m 7,8 km/h (2 Bft)
05.03.2009 13:43 21,2 C 8,2 C 7,8 C 81 % 0 % 977 hPa 0,0 l/m 2,7 km/h (1 Bft)
05.03.2009 13:46 21,2 C 8,2 C 7,8 C 82 % 0 % 977 hPa 0,0 l/m 7,8 km/h (2 Bft)
05.03.2009 13:49 21,2 C 8,2 C 7,8 C 81 % 0 % 977 hPa 0,0 l/m 0,3 km/h (0 Bft)
05.03.2009 13:52 21,2 C 8,2 C 7,8 C 81 % 0 % 977 hPa 0,0 l/m 0,9 km/h (0 Bft)
05.03.2009 13:55 21,2 C 8,2 C 8,0 C 81 % 0 % 977 hPa 0,0 l/m 4,8 km/h (1 Bft)
05.03.2009 13:58 21,2 C 8,2 C 8,3 C 82 % 0 % 977 hPa 0,0 l/m 1,2 km/h (1 Bft)
05.03.2009 14:01 21,2 C 8,2 C 7,8 C 82 % 0 % 977 hPa 0,0 l/m 1,3 km/h (1 Bft)
05.03.2009 14:04 21,2 C 8,1 C 7,7 C 82 % 0 % 977 hPa 0,0 l/m 5,9 km/h (2 Bft)
05.03.2009 14:07 21,2 C 8,0 C 7,8 C 81 % 0 % 977 hPa 0,0 l/m 1,0 km/h (0 Bft)
05.03.2009 14:10 21,2 C 8,1 C 7,6 C 82 % 0 % 977 hPa 0,0 l/m 1,3 km/h (1 Bft)
05.03.2009 14:13 21,2 C 8,0 C 7,6 C 81 % 0 % 977 hPa 0,0 l/m 0,7 km/h (0 Bft)
05.03.2009 14:16 21,2 C 8,0 C 7,8 C 82 % 0 % 977 hPa 0,0 l/m 0,7 km/h (0 Bft)
05.03.2009 14:19 21,2 C 8,1 C 7,8 C 82 % 0 % 977 hPa 0,0 l/m 0,2 km/h (0 Bft)
05.03.2009 14:22 21,2 C 8,1 C 7,6 C 82 % 0 % 977 hPa 0,0 l/m 0,6 km/h (0 Bft)
05.03.2009 14:25 21,3 C 8,1 C 7,6 C 82 % 0 % 977 hPa 0,0 l/m 1,0 km/h (0 Bft)
05.03.2009 14:28 21,3 C 8,1 C 7,2 C 82 % 0 % 977 hPa 0,0 l/m 9,5 km/h (2 Bft)
05.03.2009 14:31 21,3 C 8,0 C 7,2 C 82 % 0 % 977 hPa 0,0 l/m 0,1 km/h (0 Bft)
05.03.2009 14:34 21,3 C 8,0 C 7,2 C 82 % 0 % 977 hPa 0,0 l/m 0,7 km/h (0 Bft)
05.03.2009 14:37 21,3 C 8,0 C 7,3 C 82 % 0 % 977 hPa 0,0 l/m 0,4 km/h (0 Bft)
05.03.2009 14:40 21,3 C 7,8 C 7,3 C 83 % 0 % 977 hPa 0,0 l/m 7,4 km/h (2 Bft)
05.03.2009 14:43 21,3 C 7,8 C 7,0 C 83 % 0 % 977 hPa 0,0 l/m 0,8 km/h (0 Bft)
05.03.2009 14:46 21,3 C 7,8 C 7,1 C 83 % 0 % 977 hPa 0,0 l/m 0,8 km/h (0 Bft)
05.03.2009 14:49 21,2 C 7,8 C 6,9 C 83 % 0 % 977 hPa 0,0 l/m 1,9 km/h (1 Bft)
05.03.2009 14:52 21,2 C 7,7 C 6,6 C 84 % 0 % 977 hPa 0,0 l/m 7,1 km/h (2 Bft)
05.03.2009 14:55 21,3 C 7,6 C 6,7 C 84 % 0 % 977 hPa 0,0 l/m 1,6 km/h (1 Bft)
05.03.2009 14:58 21,3 C 7,6 C 6,6 C 84 % 0 % 977 hPa 0,0 l/m 4,8 km/h (1 Bft)
05.03.2009 15:01 21,2 C 7,5 C 6,6 C 84 % 0 % 977 hPa 0,0 l/m 0,8 km/h (0 Bft)
05.03.2009 15:04 21,2 C 7,5 C 6,5 C 84 % 0 % 977 hPa 0,0 l/m 8,3 km/h (2 Bft)
05.03.2009 15:07 21,2 C 7,4 C 6,3 C 85 % 0 % 977 hPa 0,0 l/m 1,7 km/h (1 Bft)
05.03.2009 15:10 21,2 C 7,3 C 6,3 C 85 % 0 % 977 hPa 0,0 l/m 1,7 km/h (1 Bft)
05.03.2009 15:13 21,2 C 7,2 C 6,2 C 85 % 0 % 977 hPa 0,0 l/m 0,4 km/h (0 Bft)
05.03.2009 15:16 21,2 C 7,2 C 6,2 C 86 % 0 % 977 hPa 0,0 l/m 0,3 km/h (0 Bft)
05.03.2009 15:19 21,2 C 7,1 C 6,0 C 85 % 0 % 977 hPa 0,0 l/m 0,1 km/h (0 Bft)
05.03.2009 15:22 21,2 C 7,1 C 5,8 C 85 % 0 % 977 hPa 0,0 l/m 0,3 km/h (0 Bft)
05.03.2009 15:25 21,2 C 7,1 C 5,8 C 85 % 0 % 977 hPa 0,0 l/m 0,3 km/h (0 Bft)
05.03.2009 15:28 21,2 C 6,9 C 5,6 C 86 % 0 % 977 hPa 0,0 l/m 0,9 km/h (0 Bft)
05.03.2009 15:31 21,2 C 6,8 C 5,5 C 86 % 0 % 977 hPa 0,0 l/m 0,3 km/h (0 Bft)
05.03.2009 15:34 21,2 C 6,8 C 5,6 C 86 % 0 % 977 hPa 0,0 l/m 0,0 km/h (0 Bft)
05.03.2009 15:37 21,2 C 6,7 C 5,5 C 87 % 0 % 977 hPa 0,0 l/m 0,0 km/h (0 Bft)
05.03.2009 15:40 21,2 C 6,7 C 5,5 C 87 % 0 % 977 hPa 0,0 l/m 0,0 km/h (0 Bft)
05.03.2009 15:43 21,2 C 6,7 C 5,4 C 87 % 0 % 977 hPa 0,0 l/m 0,0 km/h (0 Bft)
05.03.2009 15:46 21,2 C 6,7 C 5,5 C 87 % 0 % 977 hPa 0,0 l/m 0,0 km/h (0 Bft)
05.03.2009 15:49 21,2 C 6,8 C 5,5 C 87 % 0 % 977 hPa 0,0 l/m 0,1 km/h (0 Bft)
05.03.2009 15:52 21,3 C 6,8 C 5,5 C 87 % 0 % 977 hPa 0,0 l/m 0,0 km/h (0 Bft)
05.03.2009 15:55 21,3 C 6,8 C 5,5 C 87 % 0 % 977 hPa 0,0 l/m 0,0 km/h (0 Bft)
05.03.2009 15:58 21,3 C 6,8 C 5,5 C 87 % 0 % 977 hPa 0,0 l/m 0,0 km/h (0 Bft)
05.03.2009 16:01 21,2 C 6,8 C 5,5 C 87 % 0 % 977 hPa 0,0 l/m 0,0 km/h (0 Bft)
05.03.2009 16:04 21,2 C 6,8 C 5,5 C 87 % 0 % 977 hPa 0,0 l/m 0,0 km/h (0 Bft)
05.03.2009 16:07 21,2 C 6,8 C 5,3 C 87 % 0 % 977 hPa 0,0 l/m 0,0 km/h (0 Bft)
05.03.2009 16:10 21,2 C 6,8 C 5,3 C 87 % 0 % 977 hPa 0,0 l/m 0,0 km/h (0 Bft)
05.03.2009 16:13 21,2 C 6,6 C 5,2 C 88 % 0 % 977 hPa 0,0 l/m 0,0 km/h (0 Bft)
05.03.2009 16:16 21,2 C 6,6 C 5,2 C 88 % 0 % 977 hPa 0,0 l/m 0,0 km/h (0 Bft)
05.03.2009 16:19 21,2 C 6,6 C 5,2 C 88 % 0 % 977 hPa 0,0 l/m 0,0 km/h (0 Bft)
05.03.2009 16:22 21,2 C 6,6 C 5,2 C 88 % 0 % 977 hPa 0,0 l/m 0,0 km/h (0 Bft)
05.03.2009 16:25 21,2 C 6,6 C 5,2 C 88 % 0 % 977 hPa 0,0 l/m 0,0 km/h (0 Bft)
05.03.2009 16:28 21,2 C 6,6 C 5,2 C 88 % 0 % 977 hPa 0,0 l/m 0,0 km/h (0 Bft)
05.03.2009 16:31 21,2 C 6,6 C 5,1 C 88 % 0 % 977 hPa 0,0 l/m 0,0 km/h (0 Bft)
05.03.2009 16:34 21,2 C 6,6 C 5,1 C 88 % 0 % 977 hPa 0,3 l/m 0,0 km/h (0 Bft)
05.03.2009 16:37 21,2 C 6,6 C 5,0 C 88 % 0 % 977 hPa 0,0 l/m 0,0 km/h (0 Bft)
05.03.2009 16:40 21,2 C 6,6 C 5,0 C 88 % 0 % 977 hPa 0,0 l/m 0,0 km/h (0 Bft)
05.03.2009 16:43 21,3 C 6,4 C 5,0 C 88 % 0 % 977 hPa 0,0 l/m 0,0 km/h (0 Bft)
05.03.2009 16:46 21,2 C 6,4 C 5,0 C 89 % 0 % 977 hPa 0,0 l/m 0,0 km/h (0 Bft)
05.03.2009 16:49 21,2 C 6,4 C 5,1 C 89 % 0 % 977 hPa 0,0 l/m 0,0 km/h (0 Bft)
05.03.2009 16:52 21,2 C 6,4 C 5,1 C 89 % 0 % 977 hPa 0,0 l/m 0,0 km/h (0 Bft)
05.03.2009 16:55 21,3 C 6,4 C 5,1 C 89 % 0 % 977 hPa 0,0 l/m 0,0 km/h (0 Bft)
05.03.2009 16:58 21,2 C 6,4 C 5,0 C 89 % 0 % 977 hPa 0,0 l/m 0,0 km/h (0 Bft)
05.03.2009 17:01 21,2 C 6,4 C 5,1 C 89 % 0 % 977 hPa 0,0 l/m 0,0 km/h (0 Bft)
05.03.2009 17:04 21,2 C 6,4 C 5,1 C 89 % 0 % 977 hPa 0,3 l/m 0,0 km/h (0 Bft)
05.03.2009 17:07 21,2 C 6,4 C 5,1 C 89 % 0 % 977 hPa 0,0 l/m 0,0 km/h (0 Bft)
05.03.2009 17:10 21,2 C 6,4 C 5,0 C 89 % 0 % 977 hPa 0,0 l/m 0,0 km/h (0 Bft)
05.03.2009 17:13 21,2 C 6,4 C 4,9 C 90 % 0 % 977 hPa 0,0 l/m 0,0 km/h (0 Bft)
05.03.2009 17:16 21,2 C 6,4 C 4,9 C 90 % 0 % 977 hPa 0,0 l/m 0,0 km/h (0 Bft)
05.03.2009 17:19 21,2 C 6,4 C 4,7 C 90 % 0 % 977 hPa 0,0 l/m 0,0 km/h (0 Bft)
05.03.2009 17:22 21,2 C 6,4 C 4,8 C 90 % 0 % 977 hPa 0,3 l/m 0,0 km/h (0 Bft)
05.03.2009 17:25 21,2 C 6,4 C 4,8 C 89 % 0 % 977 hPa 0,0 l/m 0,0 km/h (0 Bft)
05.03.2009 17:28 21,2 C 6,4 C 4,8 C 89 % 0 % 977 hPa 0,0 l/m 0,0 km/h (0 Bft)
05.03.2009 17:31 21,2 C 6,3 C 4,6 C 90 % 0 % 977 hPa 0,0 l/m 0,0 km/h (0 Bft)
05.03.2009 17:34 21,3 C 6,3 C 4,7 C 89 % 0 % 977 hPa 0,0 l/m 0,0 km/h (0 Bft)
05.03.2009 17:37 21,2 C 6,2 C 4,6 C 90 % 0 % 977 hPa 0,0 l/m 0,0 km/h (0 Bft)
05.03.2009 17:40 21,3 C 6,2 C 4,5 C 90 % 0 % 977 hPa 0,3 l/m 0,0 km/h (0 Bft)
05.03.2009 17:43 21,2 C 6,2 C 4,5 C 90 % 0 % 977 hPa 0,0 l/m 0,0 km/h (0 Bft)
05.03.2009 17:46 21,2 C 6,2 C 4,5 C 90 % 0 % 977 hPa 0,0 l/m 0,0 km/h (0 Bft)
05.03.2009 17:49 21,2 C 6,3 C 4,5 C 90 % 0 % 977 hPa 0,3 l/m 0,0 km/h (0 Bft)
05.03.2009 17:52 21,2 C 6,2 C 4,7 C 90 % 0 % 977 hPa 0,0 l/m 0,0 km/h (0 Bft)
05.03.2009 17:55 21,2 C 6,2 C 4,6 C 90 % 0 % 977 hPa 0,0 l/m 0,5 km/h (0 Bft)
05.03.2009 17:58 21,2 C 6,1 C 4,7 C 90 % 0 % 977 hPa 0,3 l/m 0,6 km/h (0 Bft)
05.03.2009 18:01 21,2 C 6,1 C 4,8 C 90 % 0 % 977 hPa 0,0 l/m 10,9 km/h (2 Bft)
05.03.2009 18:04 21,2 C 6,0 C 4,7 C 91 % 0 % 977 hPa 0,0 l/m 0,0 km/h (0 Bft)
05.03.2009 18:07 21,2 C 6,1 C 4,6 C 90 % 0 % 977 hPa 0,0 l/m 0,0 km/h (0 Bft)
05.03.2009 18:10 21,3 C 6,0 C 4,5 C 90 % 0 % 977 hPa 0,3 l/m 0,0 km/h (0 Bft)
05.03.2009 18:13 21,3 C 6,0 C 4,6 C 90 % 0 % 977 hPa 0,0 l/m 12,6 km/h (3 Bft)
05.03.2009 18:16 21,4 C 6,0 C 4,6 C 90 % 0 % 977 hPa 0,0 l/m 9,3 km/h (2 Bft)
05.03.2009 18:19 21,4 C 6,0 C 4,6 C 90 % 0 % 978 hPa 0,0 l/m 9,3 km/h (2 Bft)
05.03.2009 18:22 21,4 C 6,0 C 4,5 C 90 % 0 % 978 hPa 0,0 l/m 0,0 km/h (0 Bft)
05.03.2009 18:25 21,4 C 6,0 C 4,4 C 90 % 0 % 978 hPa 0,3 l/m 0,0 km/h (0 Bft)
05.03.2009 18:28 21,4 C 6,0 C 4,3 C 90 % 0 % 978 hPa 0,0 l/m 0,0 km/h (0 Bft)
05.03.2009 18:31 21,2 C 5,9 C 4,3 C 90 % 0 % 978 hPa 0,0 l/m 0,0 km/h (0 Bft)
05.03.2009 18:34 20,4 C 5,9 C 4,3 C 90 % 0 % 978 hPa 0,0 l/m 0,0 km/h (0 Bft)
05.03.2009 18:37 19,7 C 5,8 C 4,3 C 90 % 0 % 978 hPa 0,0 l/m 0,0 km/h (0 Bft)
05.03.2009 18:40 19,6 C 5,8 C 4,3 C 90 % 0 % 978 hPa 0,3 l/m 0,0 km/h (0 Bft)
05.03.2009 18:43 19,6 C 5,8 C 4,3 C 90 % 0 % 978 hPa 0,0 l/m 0,0 km/h (0 Bft)
05.03.2009 18:46 20,0 C 5,8 C 4,3 C 90 % 0 % 978 hPa 0,0 l/m 0,0 km/h (0 Bft)
05.03.2009 18:49 20,4 C 5,8 C 4,3 C 90 % 0 % 978 hPa 0,0 l/m 0,0 km/h (0 Bft)
05.03.2009 18:52 20,6 C 5,7 C 4,3 C 90 % 0 % 978 hPa 0,3 l/m 0,0 km/h (0 Bft)
05.03.2009 18:55 20,7 C 5,7 C 4,3 C 90 % 0 % 978 hPa 0,0 l/m 0,0 km/h (0 Bft)
05.03.2009 18:58 20,8 C 5,6 C 4,3 C 90 % 0 % 978 hPa 0,0 l/m 0,0 km/h (0 Bft)
05.03.2009 19:01 20,8 C 5,6 C 4,3 C 91 % 0 % 978 hPa 0,0 l/m 0,1 km/h (0 Bft)
05.03.2009 19:04 20,9 C 5,6 C 4,3 C 91 % 0 % 978 hPa 0,0 l/m 0,0 km/h (0 Bft)
05.03.2009 19:07 21,0 C 5,5 C 4,3 C 91 % 0 % 978 hPa 0,3 l/m 0,0 km/h (0 Bft)
05.03.2009 19:10 21,0 C 5,5 C 4,3 C 92 % 0 % 978 hPa 0,0 l/m 0,0 km/h (0 Bft)
05.03.2009 19:13 21,0 C 5,4 C 4,2 C 92 % 0 % 978 hPa 0,0 l/m 0,0 km/h (0 Bft)
05.03.2009 19:16 21,1 C 5,5 C 4,2 C 92 % 0 % 978 hPa 0,0 l/m 0,0 km/h (0 Bft)
05.03.2009 19:19 21,1 C 5,4 C 4,2 C 92 % 0 % 978 hPa 0,0 l/m 0,0 km/h (0 Bft)
05.03.2009 19:22 21,1 C 5,5 C 4,1 C 92 % 0 % 978 hPa 0,3 l/m 0,0 km/h (0 Bft)
05.03.2009 19:25 21,1 C 5,4 C 4,2 C 92 % 0 % 978 hPa 0,0 l/m 0,1 km/h (0 Bft)
05.03.2009 19:28 21,1 C 5,4 C 4,1 C 92 % 0 % 978 hPa 0,0 l/m 0,0 km/h (0 Bft)
05.03.2009 19:31 21,1 C 5,4 C 4,1 C 92 % 0 % 978 hPa 0,0 l/m 0,0 km/h (0 Bft)
05.03.2009 19:34 21,2 C 5,4 C 4,1 C 92 % 0 % 978 hPa 0,0 l/m 0,0 km/h (0 Bft)
05.03.2009 19:37 21,2 C 5,4 C 4,1 C 92 % 0 % 978 hPa 0,3 l/m 0,0 km/h (0 Bft)
05.03.2009 19:40 21,3 C 5,4 C 4,0 C 91 % 0 % 978 hPa 0,0 l/m 0,0 km/h (0 Bft)
05.03.2009 19:43 21,4 C 5,4 C 4,0 C 91 % 0 % 978 hPa 0,0 l/m 0,0 km/h (0 Bft)
05.03.2009 19:46 21,4 C 5,4 C 4,1 C 91 % 0 % 978 hPa 0,3 l/m 0,0 km/h (0 Bft)
05.03.2009 19:49 21,5 C 5,4 C 4,0 C 92 % 0 % 978 hPa 0,0 l/m 0,0 km/h (0 Bft)
05.03.2009 19:52 21,6 C 5,3 C 4,1 C 92 % 0 % 978 hPa 0,0 l/m 0,0 km/h (0 Bft)
05.03.2009 19:55 21,6 C 5,3 C 4,1 C 92 % 0 % 978 hPa 0,0 l/m 0,0 km/h (0 Bft)
05.03.2009 19:58 21,6 C 5,3 C 4,1 C 92 % 0 % 978 hPa 0,3 l/m 0,0 km/h (0 Bft)
05.03.2009 20:01 21,6 C 5,3 C 4,0 C 92 % 0 % 978 hPa 0,0 l/m 0,0 km/h (0 Bft)
05.03.2009 20:04 21,7 C 5,3 C 3,9 C 92 % 0 % 978 hPa 0,0 l/m 0,0 km/h (0 Bft)
05.03.2009 20:07 21,7 C 5,3 C 3,9 C 92 % 0 % 978 hPa 0,0 l/m 0,0 km/h (0 Bft)
05.03.2009 20:10 21,7 C 5,3 C 3,9 C 92 % 0 % 978 hPa 0,0 l/m 0,0 km/h (0 Bft)
05.03.2009 20:13 21,7 C 5,3 C 3,9 C 92 % 0 % 978 hPa 0,0 l/m 0,0 km/h (0 Bft)
05.03.2009 20:16 21,7 C 5,3 C 3,8 C 92 % 0 % 978 hPa 0,0 l/m 0,0 km/h (0 Bft)
05.03.2009 20:19 21,7 C 5,3 C 3,8 C 92 % 0 % 978 hPa 0,3 l/m 0,0 km/h (0 Bft)
05.03.2009 20:22 21,7 C 5,3 C 3,8 C 92 % 0 % 978 hPa 0,0 l/m 0,0 km/h (0 Bft)
05.03.2009 20:25 21,7 C 5,3 C 3,8 C 92 % 0 % 978 hPa 0,0 l/m 0,0 km/h (0 Bft)
05.03.2009 20:28 21,7 C 5,3 C 3,7 C 92 % 0 % 978 hPa 0,3 l/m 0,0 km/h (0 Bft)
05.03.2009 20:31 21,7 C 5,3 C 3,7 C 92 % 0 % 978 hPa 0,0 l/m 0,0 km/h (0 Bft)
05.03.2009 20:34 21,6 C 5,3 C 3,7 C 92 % 0 % 978 hPa 0,0 l/m 0,0 km/h (0 Bft)
05.03.2009 20:37 21,6 C 5,3 C 3,7 C 92 % 0 % 978 hPa 0,0 l/m 0,0 km/h (0 Bft)
05.03.2009 20:40 21,6 C 5,3 C 3,7 C 92 % 0 % 978 hPa 0,0 l/m 0,0 km/h (0 Bft)
05.03.2009 20:43 21,6 C 5,3 C 3,7 C 92 % 0 % 978 hPa 0,0 l/m 0,0 km/h (0 Bft)
05.03.2009 20:46 21,6 C 5,2 C 3,7 C 92 % 0 % 979 hPa 0,0 l/m 0,0 km/h (0 Bft)
05.03.2009 20:49 21,6 C 5,2 C 3,7 C 92 % 0 % 979 hPa 0,0 l/m 0,0 km/h (0 Bft)
05.03.2009 20:52 21,6 C 5,2 C 3,7 C 92 % 0 % 979 hPa 0,0 l/m 0,0 km/h (0 Bft)
05.03.2009 20:55 21,6 C 5,2 C 3,7 C 92 % 0 % 979 hPa 0,3 l/m 0,0 km/h (0 Bft)
05.03.2009 20:58 21,5 C 5,2 C 3,7 C 92 % 0 % 979 hPa 0,0 l/m 0,0 km/h (0 Bft)
05.03.2009 21:01 21,5 C 5,1 C 3,7 C 92 % 0 % 979 hPa 0,0 l/m 0,0 km/h (0 Bft)
05.03.2009 21:04 21,5 C 5,1 C 3,7 C 92 % 0 % 979 hPa 0,0 l/m 0,0 km/h (0 Bft)
05.03.2009 21:07 21,5 C 5,1 C 3,7 C 92 % 0 % 979 hPa 0,0 l/m 0,0 km/h (0 Bft)
05.03.2009 21:10 21,5 C 5,1 C 3,7 C 92 % 0 % 979 hPa 0,0 l/m 0,0 km/h (0 Bft)
05.03.2009 21:13 21,5 C 5,1 C 3,7 C 92 % 0 % 979 hPa 0,0 l/m 0,0 km/h (0 Bft)
05.03.2009 21:16 21,5 C 4,9 C 3,6 C 92 % 0 % 978 hPa 0,0 l/m 0,0 km/h (0 Bft)
05.03.2009 21:19 21,5 C 4,9 C 3,6 C 92 % 0 % 979 hPa 0,0 l/m 0,0 km/h (0 Bft)
05.03.2009 21:22 21,4 C 4,9 C 3,6 C 92 % 0 % 979 hPa 0,0 l/m 0,0 km/h (0 Bft)
05.03.2009 21:25 21,4 C 4,9 C 3,6 C 92 % 0 % 979 hPa 0,0 l/m 0,0 km/h (0 Bft)
05.03.2009 21:28 21,4 C 4,9 C 3,6 C 92 % 0 % 979 hPa 0,0 l/m 0,0 km/h (0 Bft)
05.03.2009 21:31 21,4 C 4,9 C 3,6 C 92 % 0 % 979 hPa 0,0 l/m 0,0 km/h (0 Bft)
05.03.2009 21:34 21,4 C 4,9 C 3,7 C 92 % 0 % 979 hPa 0,0 l/m 0,0 km/h (0 Bft)
05.03.2009 21:37 21,4 C 4,9 C 3,8 C 92 % 0 % 979 hPa 0,0 l/m 0,0 km/h (0 Bft)
05.03.2009 21:40 21,4 C 4,9 C 3,8 C 92 % 0 % 979 hPa 0,0 l/m 0,0 km/h (0 Bft)
05.03.2009 21:43 21,4 C 4,9 C 3,7 C 92 % 0 % 979 hPa 0,0 l/m 0,0 km/h (0 Bft)
05.03.2009 21:46 21,4 C 4,9 C 3,7 C 92 % 0 % 979 hPa 0,3 l/m 0,0 km/h (0 Bft)
05.03.2009 21:49 21,4 C 4,9 C 3,6 C 92 % 0 % 979 hPa 0,0 l/m 0,0 km/h (0 Bft)
05.03.2009 21:52 21,4 C 4,9 C 3,6 C 92 % 0 % 979 hPa 0,0 l/m 0,0 km/h (0 Bft)
05.03.2009 21:55 21,4 C 4,9 C 3,5 C 92 % 0 % 979 hPa 0,0 l/m 0,0 km/h (0 Bft)
05.03.2009 21:58 21,4 C 4,8 C 3,6 C 92 % 0 % 979 hPa 0,0 l/m 0,0 km/h (0 Bft)
05.03.2009 22:01 21,4 C 4,8 C 3,6 C 92 % 0 % 979 hPa 0,0 l/m 0,0 km/h (0 Bft)
05.03.2009 22:04 21,4 C 4,8 C 3,7 C 92 % 0 % 979 hPa 0,0 l/m 0,0 km/h (0 Bft)
05.03.2009 22:07 21,4 C 4,8 C 3,6 C 93 % 0 % 979 hPa 0,0 l/m 0,0 km/h (0 Bft)
05.03.2009 22:10 21,4 C 4,8 C 3,6 C 93 % 0 % 979 hPa 0,0 l/m 0,0 km/h (0 Bft)
05.03.2009 22:13 21,4 C 4,8 C 3,6 C 93 % 0 % 979 hPa 0,0 l/m 0,0 km/h (0 Bft)
05.03.2009 22:16 21,4 C 4,8 C 3,5 C 93 % 0 % 979 hPa 0,0 l/m 0,0 km/h (0 Bft)
05.03.2009 22:19 21,4 C 4,8 C 3,5 C 93 % 0 % 979 hPa 0,0 l/m 0,0 km/h (0 Bft)
05.03.2009 22:22 21,4 C 4,8 C 3,6 C 93 % 0 % 979 hPa 0,0 l/m 0,0 km/h (0 Bft)
05.03.2009 22:25 21,3 C 4,8 C 3,7 C 93 % 0 % 979 hPa 0,0 l/m 0,0 km/h (0 Bft)
05.03.2009 22:28 21,3 C 4,8 C 3,7 C 93 % 0 % 979 hPa 0,0 l/m 0,3 km/h (0 Bft)
05.03.2009 22:31 21,4 C 4,7 C 3,7 C 93 % 0 % 979 hPa 0,0 l/m 0,0 km/h (0 Bft)
05.03.2009 22:34 21,4 C 4,7 C 3,7 C 93 % 0 % 979 hPa 0,0 l/m 0,9 km/h (0 Bft)
05.03.2009 22:37 21,4 C 4,7 C 3,6 C 93 % 0 % 979 hPa 0,0 l/m 17,3 km/h (3 Bft)
05.03.2009 22:40 21,4 C 4,7 C 3,5 C 93 % 0 % 979 hPa 0,0 l/m 17,7 km/h (3 Bft)
05.03.2009 22:43 21,4 C 4,6 C 3,4 C 93 % 0 % 979 hPa 0,0 l/m 19,1 km/h (3 Bft)
05.03.2009 22:46 21,4 C 4,6 C 3,3 C 93 % 0 % 979 hPa 0,0 l/m 19,1 km/h (3 Bft)
05.03.2009 22:49 21,4 C 4,5 C 3,2 C 93 % 0 % 979 hPa 0,0 l/m 10,6 km/h (2 Bft)
05.03.2009 22:52 21,4 C 4,3 C 3,1 C 92 % 0 % 979 hPa 0,0 l/m 18,8 km/h (3 Bft)
05.03.2009 22:55 21,4 C 4,3 C 3,0 C 92 % 0 % 979 hPa 0,0 l/m 19,4 km/h (3 Bft)
05.03.2009 22:58 21,4 C 4,2 C 2,8 C 92 % 0 % 979 hPa 0,0 l/m 18,3 km/h (3 Bft)
05.03.2009 23:01 21,4 C 4,1 C 2,8 C 92 % 0 % 979 hPa 0,0 l/m 18,8 km/h (3 Bft)
05.03.2009 23:04 21,3 C 4,0 C 2,7 C 92 % 0 % 979 hPa 0,0 l/m 14,6 km/h (3 Bft)
05.03.2009 23:07 21,3 C 4,0 C 2,7 C 92 % 0 % 979 hPa 0,0 l/m 17,3 km/h (3 Bft)
05.03.2009 23:10 21,3 C 4,0 C 2,7 C 92 % 0 % 979 hPa 0,3 l/m 16,5 km/h (3 Bft)
05.03.2009 23:13 21,3 C 3,7 C 2,6 C 91 % 0 % 979 hPa 0,0 l/m 18,3 km/h (3 Bft)
05.03.2009 23:16 21,3 C 3,7 C 2,6 C 91 % 0 % 979 hPa 0,0 l/m 18,3 km/h (3 Bft)
05.03.2009 23:19 21,3 C 3,7 C 2,5 C 92 % 0 % 979 hPa 0,0 l/m 19,8 km/h (3 Bft)
05.03.2009 23:22 21,3 C 3,7 C 2,5 C 92 % 0 % 979 hPa 0,0 l/m 17,0 km/h (3 Bft)
05.03.2009 23:25 21,3 C 3,7 C 2,5 C 92 % 0 % 980 hPa 0,0 l/m 17,0 km/h (3 Bft)
05.03.2009 23:28 21,3 C 3,6 C 2,5 C 92 % 0 % 980 hPa 0,0 l/m 13,1 km/h (3 Bft)
05.03.2009 23:31 21,3 C 3,5 C 2,5 C 91 % 0 % 980 hPa 0,0 l/m 10,8 km/h (2 Bft)
05.03.2009 23:34 21,3 C 3,4 C 2,5 C 92 % 0 % 980 hPa 0,0 l/m 10,8 km/h (2 Bft)
05.03.2009 23:37 21,3 C 3,4 C 2,5 C 92 % 0 % 980 hPa 0,0 l/m 10,3 km/h (2 Bft)
05.03.2009 23:40 21,3 C 3,3 C 2,4 C 92 % 0 % 980 hPa 0,0 l/m 10,6 km/h (2 Bft)
05.03.2009 23:43 21,3 C 3,3 C 2,4 C 92 % 0 % 980 hPa 0,0 l/m 12,6 km/h (3 Bft)
05.03.2009 23:46 21,3 C 3,1 C 2,3 C 92 % 0 % 980 hPa 0,0 l/m 16,4 km/h (3 Bft)
05.03.2009 23:49 21,3 C 3,1 C 2,3 C 92 % 0 % 980 hPa 0,0 l/m 14,8 km/h (3 Bft)
05.03.2009 23:52 21,3 C 3,1 C 2,2 C 92 % 0 % 980 hPa 0,0 l/m 16,7 km/h (3 Bft)
05.03.2009 23:55 21,3 C 3,1 C 2,2 C 92 % 0 % 980 hPa 0,0 l/m 13,0 km/h (3 Bft)
05.03.2009 23:58 21,3 C 3,0 C 2,2 C 92 % 0 % 980 hPa 0,0 l/m 14,5 km/h (3 Bft)
_ Min-Zeit 18:40 23:58 23:52 10:19 - 09:10 - 15:34
Minimum _ 19,6 C 3,0 C 2,2 C 72 % - 976 hPa - 0,0 km/h (0 Bft)
_ Max-Zeit 20:04 10:58 12:55 22:07 00:01 00:01 16:34 07:43
Maximum _ 21,7 C 10,2 C 10,0 C 93 % 0 % 982 hPa 0,3 l/m 49,5 km/h
W (6 Bft)
Durchschnitt _ 21,3 C 7,4 C 6,4 C 82 % #0 min. 978 hPa #6,8 l/m 16,9 km/h (3 Bft)